This is the latest recevied weather packets stored in our database for station/object WB0VGI-1. If no packets are shown the sender has not sent any weather packets the latest 10 day(s).
| Time | Temp. | Humidity | Pressure | Rain* | Wind** | Luminosity | Snow |
|---|---|---|---|---|---|---|---|
| 1778158025 | 3.89° C | 69% | 1017.6 hPa | 0 mm | - | - | - |
| 1778156825 | 2.78° C | 75% | 1017.9 hPa | 0 mm | - | - | - |
| 1778155625 | 2.22° C | 76% | 1017.8 hPa | 0 mm | - | - | - |
| 1778154425 | 2.22° C | 77% | 1017.8 hPa | 0 mm | - | - | - |
| 1778153225 | 2.22° C | 76% | 1017.8 hPa | 0 mm | - | - | - |
| 1778152025 | 2.22° C | 76% | 1017.8 hPa | 0 mm | - | - | - |
| 1778150825 | 2.22° C | 75% | 1017.8 hPa | 0 mm | - | - | - |
| 1778149625 | 2.22° C | 75% | 1017.9 hPa | 0 mm | - | - | - |
| 1778148425 | 2.22° C | 75% | 1017.9 hPa | 0 mm | - | - | - |
| 1778147225 | 2.22° C | 74% | 1018 hPa | 0 mm | - | - | - |
| 1778146025 | 2.78° C | 73% | 1017.9 hPa | 0 mm | - | - | - |
| 1778144825 | 2.78° C | 72% | 1017.9 hPa | 0 mm | - | - | - |
| 1778143625 | 2.78° C | 72% | 1017.8 hPa | 0 mm | - | - | - |
| 1778142425 | 3.33° C | 72% | 1017.7 hPa | 0 mm | - | - | - |
| 1778141225 | 3.33° C | 70% | 1017.6 hPa | 0 mm | - | - | - |
| 1778140025 | 3.89° C | 68% | 1017.7 hPa | 0 mm | - | - | - |
| 1778138825 | 3.89° C | 67% | 1017.9 hPa | 0 mm | - | - | - |
| 1778137625 | 3.89° C | 67% | 1018 hPa | 0 mm | - | - | - |
| 1778136425 | 3.89° C | 66% | 1018.1 hPa | 0 mm | - | - | - |
| 1778135225 | 3.89° C | 66% | 1018.3 hPa | 0 mm | - | - | - |
| 1778134025 | 4.44° C | 66% | 1018.4 hPa | 0 mm | - | - | - |
| 1778132825 | 4.44° C | 65% | 1018.5 hPa | 0 mm | - | - | - |
| 1778131625 | 4.44° C | 65% | 1018.6 hPa | 0 mm | - | - | - |
| 1778130425 | 4.44° C | 65% | 1018.7 hPa | 0 mm | - | - | - |
| 1778129225 | 4.44° C | 64% | 1018.8 hPa | 0 mm | - | - | - |
* Rain latest hour (hover to see other rain measurements)
** Current wind speed in m/s (hover to see current wind gust speed)